Regional Weather Roundup
Issued by NWS Grand Forks, ND

Home | Current Version | Previous Version | Text Only | Print | Product List | Glossary Off
Versions: 1 2 3 4 5 6 7 8 9 10 11 12 13 14 15 16 17 18 19 20 21 22 23 24 25 26 27 28 29 30 31 32 33 34 35 36 37 38 39 40 41 42 43 44 45 46 47 48 49 50

000
ASUS43 KFGF 280310
RWRFGF
PRAIRIE TO PINES  WEATHER ROUNDUP
NATIONAL WEATHER SERVICE EASTERN NORTH DAKOTA/GRAND FORKS ND
1000 PM CDT WED AUG 27 2014

 **SATELLITE DATA USED TO AUGMENT SKY COVER AT AUTOMATED STATIONS**
 *****  WEATHER ACROSS EASTERN NORTH DAKOTA  *****

CITY           SKY/WX    TMP DP  RH WIND       PRES   REMARKS
GRAND FORKS    CLEAR     63  58  83 SE7       30.06S
GRAND FRKS AFB CLEAR     61  61  99 S6        30.07S
GRAND FRKS NWS   N/A     64 N/A N/A SE3         N/A
DEVILS LAKE    CLEAR     66  57  72 S9        30.04S
FARGO          MOCLDY    66  60  81 SE8       30.08R
WAHPETON ARPT  CLOUDY    64  59  82 SE5       30.10S
$$

 ***** WEATHER ACROSS CENTRAL AND WESTERN NORTH DAKOTA  *****

CITY           SKY/WX    TMP DP  RH WIND       PRES   REMARKS
BISMARCK       PTCLDY    66  60  81 S8        30.05R
MINOT          CLEAR     64  57  78 SE5       29.99S
JAMESTOWN      CLOUDY    66  61  84 SE7       30.06S
MINOT AFB      CLEAR     61  60  94 S9        29.99R
GARRISON         N/A     62  59  90 S7        30.02R
WILLISTON      CLEAR     72  53  51 S8        29.95R
DICKINSON      MOCLDY    64  60  87 S10       30.03R
HETTINGER      PTCLDY    62  60  93 SE6       30.07R
$$

 *****  OTHER AIRPORT OBSERVATIONS IN OUR AREA  *****

CITY           SKY/WX    TMP DP  RH WIND       PRES   REMARKS
WALHALLA         N/A     63  61  94 S6        30.04F
GRAFTON AIRPOR FAIR      59  57  94 S7        30.06S
VALLEY CITY AR CLOUDY    68  66  94 S10       30.08S
CANDO          FAIR      59  57  94 S8        30.04S
CAVALIER APRT  FAIR      59  55  88 S5        30.05S
GWINNER        CLOUDY    66  63  88 SE6       30.09S
SHEYENNE NWR     N/A     63  60  91 SE5       29.95S
ROLLA          FAIR      57  57 100 S3        30.04S
 ***** THE ABOVE OBSERVATIONS ARE NON NWS ARE NOT QUALITY
       CONTROLLED AND MAY MIS-REPORT RAIN FOR SNOW...
$$

  *****  WEATHER ACROSS NORTHERN MINNESOTA  *****

CITY           SKY/WX    TMP DP  RH WIND       PRES   REMARKS
FLAG ISLAND    CLEAR     66  52  59 SE8       30.08F
WARROAD        CLEAR     55  52  88 SE5       30.10F
ROSEAU         CLEAR     61  52  72 SE9       30.09S
HALLOCK        CLEAR     57  54  88 SE8       30.06S
THF RVR FALLS  CLEAR     57  54  88 SE5       30.10R
BAUDETTE       CLEAR     57  53  86 CALM      30.11S
WASKISH        CLEAR     54  52  94 CALM      30.11S
CROOKSTON      CLEAR     61  55  82 SE6       30.09S
$$
  *****  WEATHER ACROSS CENTRAL AND WEST MINNESOTA  *****

CITY           SKY/WX    TMP DP  RH WIND       PRES   REMARKS
FOSSTON        CLEAR     59  54  82 CALM      30.12R
BEMIDJI        CLEAR     56  52  86 CALM      30.12S
PARK RAPIDS    CLEAR     61  57  87 CALM      30.13S
ELBOW LAKE     MOCLDY    66  61  83 SE5       30.12R
WADENA         CLEAR     59  57  94 CALM      30.13S
DETROIT LAKES  CLEAR     61  59  94 S5        30.13S
MOORHEAD       PTCLDY    64  63  94 SE6       30.10S
FERGUS FALLS   CLOUDY    66  57  72 SE6       30.11R
MORRIS MN      MOCLDY    66  63  88 E7        30.10S
STAPLES        CLEAR     61  57  88 SE3       30.13S
$$
  *****  WEATHER ELSEWHERE ACROSS MINNESOTA  *****

CITY           SKY/WX    TMP DP  RH WIND       PRES   REMARKS
DULUTH         PTCLDY    59  52  77 CALM      30.15R
INTRNTL FALLS  CLEAR     50  48  93 CALM      30.12R
ELY            PTCLDY    52  48  87 CALM      30.14S
CLOQUET        CLEAR     59  54  82 SW3       30.15R
WHEATON        MOCLDY    63  59  88 E3        30.11S
BRAINERD       CLOUDY    61  58  90 CALM      30.14S
HIBBING        PTCLDY    52  49  89 CALM      30.14S
ALEXANDRIA     MOCLDY    65  59  81 SE6       30.14S
SAINT CLOUD    CLEAR     64  58  80 E5        30.13R
MINNEAPOLIS    PTCLDY    70  58  65 NE7       30.13R
$$

  *****  WEATHER ACROSS SOUTH DAKOTA  *****

CITY           SKY/WX    TMP DP  RH WIND       PRES   REMARKS
SIOUX FALLS    CLOUDY    69  65  86 E8        30.09R
BROOKINGS      NOT AVBL
WATERTOWN      PTCLDY    66  61  84 E6        30.09R
HURON          MOCLDY    69  64  84 SE6       30.05R
SISSETON         N/A     64  62  93 SE5       30.08R
ABERDEEN       MOCLDY    65  62  90 E3        30.06R
MITCHELL       CLOUDY    68  66  93 SE6       30.06S
PIERRE         LGT RAIN  69  66  90 SE9       30.02R
MOBRIDGE       CLOUDY    68  64  87 E9        30.01S
RAPID CITY     LGT RAIN  63  61  93 SW3       30.08S
$$

  *****  SOME WEATHER IN NEARBY STATES *****

CITY           SKY/WX    TMP DP  RH WIND       PRES   REMARKS
GLASGOW MT     CLEAR     73  51  46 NE3       29.92R
GREAT FALLS MT CLEAR     68  47  46 SW5       30.01S
CHEYENNE WY    PTCLDY    56  51  84 NW7       30.20R
SCOTTSBLUFF NE CLOUDY    65  62  90 N7        30.07S
OMAHA NE       CLOUDY    73  68  84 SE6       30.07R
DES MOINES IA  CLOUDY    73  68  84 E3        30.10R
DAVENPORT IA   CLEAR     64  61  90 E3        30.12S
CHICAGO IL     PTCLDY    69  59  70 NE7       30.13R
EAU CLAIRE WI  CLEAR     62  57  83 NE3       30.14R
LA CROSSE WI   CLEAR     66  61  84 SE3       30.13R
$$

  *****  SOME NATIONAL WEATHER *****

CITY           SKY/WX    TMP DP  RH WIND       PRES   REMARKS
LA GUARDIA NY  MOCLDY    78  66  66 E5        29.87F
RALEIGH NC     PTCLDY    66  60  81 CALM      30.00S
ATLANTA GA     PTCLDY    78  61  55 W3        30.06R
NEW ORLEANS LA MOCLDY    83  75  77 SE5       29.99R HX  90
OKLAHOMA CITY  PTCLDY    83  65  54 SE8       30.02R
ALBUQUERQUE NM PTCLDY    75  50  41 S5        30.22R
SALT LAKE CITY MOCLDY    69  48  47 S5        30.20R
LOS ANGELES CA CLEAR     73  60  63 W10       29.98R
BOISE ID       CLEAR     84  37  18 CALM      30.04R
SEATTLE WA     PTCLDY    77  56  48 W3        30.01S
$$

*** WEATHER ACROSS MANITOBA...SASKATCHEWAN AND ONTARIO ***
                ***ONTARIO***

CITY           SKY/WX    TMP DP  RH WIND       PRES   REMARKS
GERALDTON      PTCLDY    46  46 100 CALM      30.13S
THUNDER BAY    PTCLDY    50  48  93 W3        30.14S
SIOUX LOOKOUT  CLEAR     52  48  87 S5        30.11R
TORONTO        PTCLDY    61  50  67 NW12      30.07S
BIG TROUT LK     N/A     59  48  67 S9        30.00
PICKLE LAKE    NOT AVBL
DRYDEN         CLEAR     57  50  77 S7        30.11S
KENORA         CLEAR     61  52  72 S5        30.10F
$$
                *** MANITOBA***

CITY           SKY/WX    TMP DP  RH WIND       PRES   REMARKS
BRANDON        CLEAR     63  54  72 SE5       29.99F
DAUPHIN        CLEAR     66  55  68 SW6       29.93F
ISLAND LAKE    PTCLDY    68  54  60 S6        29.87F
PILOT MOUND      N/A     57  54  88 SE8         N/A
THE PAS        TSTM      66  61  82 N6        29.78
THOMPSON       MOCLDY    64  61  88 SW8       29.69
WINNIPEG       CLEAR     64  52  63 S12       30.03F
LYNN LAKE      MOCLDY    61  57  88 MISG      29.67S
CHURCHILL      CLOUDY    61  55  82 S12       29.58F
GILLAM         MOCLDY    64  57  77 S9        29.69F
$$
                ***SASKATCHEWAN***

CITY           SKY/WX    TMP DP  RH WIND       PRES   REMARKS
ESTEVAN        PTCLDY    66  59  77 SE9       29.94S
KINDERSLEY     NOT AVBL
LLOYDMINSTER   PTCLDY    63  54  72 NW2       29.87R
PRINCE ALBERT  PTCLDY    61  59  94 S2        29.81S
REGINA         CLEAR     66  59  77 E5        29.86S
YORKTON        CLEAR     64  57  77 S9        29.89S
N. BATTLEFORD  CLEAR     59  55  88 CALM      29.87S
LA RONGE       PTCLDY    61  61 100 SW3       29.77R
SASKATOON      PTCLDY    66  55  68 NE12      29.83S
SWIFT CURRENT  CLEAR     66  52  59 SW9       29.88R
$$
NOTE: THESE ARE AUTOMATED STATIONS WITH LIMITED QUALITY CONTROL
      "FAIR" INDICATES FEW OR NO CLOUDS BELOW 12,000 FEET WITH NO
      SIGNIFICANT WEATHER AND/OR OBSTRUCTIONS TO VISIBILITY.
      SKY/WX - SKY CONDITION AND SIGNIFICANT WEATHER.
      TMP - AIR TEMPERATURE.    DP   - DEWPOINT TEMPERATURE.
      RH  - RELATIVE HUMIDITY.  PRES - PRESSURE.
      HX  - HEAT INDEX.         WCI  - WIND CHILL INDEX.
$


USA.gov is the U.S. government's official web portal to all federal, state and local government web resources and services.